Regional Weather Roundup
Issued by NWS

Home | Current Version | Previous Version | Graphics & Text | Print | Product List | Glossary On
Versions: 1 2 3 4 5 6 7 8 9 10 11 12 13 14 15 16 17 18 19 20 21 22 23 24 25 26 27 28 29 30 31 32 33 34 35 36 37 38 39 40 41 42 43 44 45 46 47 48 49 50
000
ASUS43 KMKX 301959
RWRWI

WISCONSIN REGIONAL WEATHER ROUNDUP
NATIONAL WEATHER SERVICE MILWAUKEE/SULLIVAN WI
200 PM CST FRI JAN 30 2015

NOTE: "FAIR" INDICATES FEW OR NO CLOUDS BELOW 12,000 FEET WITH NO
SIGNIFICANT WEATHER AND/OR OBSTRUCTIONS TO VISIBILITY.

WIZ001-002-006>008-014>016-023>028-302100-
NORTHWEST WISCONSIN

CITY           SKY/WX    TMP DP  RH WIND       PRES   REMARKS
SUPERIOR ARPT  CLOUDY    16   4  58 SW3       30.39F
ASHLAND        CLOUDY    16   4  59 SW6       30.39F WCI   7
HAYWARD        CLOUDY    14   1  56 S8        30.36F WCI   3
SIREN          CLOUDY    15   4  62 SW7       30.39F WCI   5
CUMBERLAND     CLOUDY    12   3  67 S7        30.38F WCI   2
RICE LAKE      CLOUDY    14   4  65 S7        30.42F WCI   4
CHETEK         PTSUNNY   15   5  64 S5        30.41F WCI   7
LADYSMITH      PTSUNNY   16   5  62 S3        30.41F
EAU CLAIRE     NOT AVBL
MENOMONIE      FAIR      18   6  60 S6        30.43F WCI  10
NEW RICHMOND   MOSUNNY   20   9  62 S7        30.40F WCI  11
OSCEOLA        MOSUNNY   21   9  60 S10       30.42F WCI  10
$$

WIZ003>005-009-010-017-018-302100-
NORTH CENTRAL WISCONSIN

CITY           SKY/WX    TMP DP  RH WIND       PRES   REMARKS
MANITOWISH WTR PTSUNNY   15   1  56 SW7       30.32F WCI   5
ARBOR VITAE    MOSUNNY   17   5  59 S6        30.33F WCI   8
WOODRUFF       MOSUNNY   17   5  59 S6        30.33F WCI   8
RHINELANDER    PTSUNNY   16   3  56 VRB7      30.34F WCI   6
EAGLE RIVER    FAIR      16   3  56 SW8       30.32F WCI   5
LAND O LAKES   MOSUNNY   17   3  55 SW7       30.33F WCI   7
PHILLIPS       CLOUDY    16   4  59 SW6       30.35F WCI   7
TOMAHAWK       PTSUNNY   18   3  52 CALM      30.37F
MEDFORD        MOSUNNY   14   5  66 SW8       30.37F WCI   3
MERRILL        MOSUNNY   17   4  56 SW7       30.38F WCI   7
$$

WIZ029-030-035-036-043>047-302100-
CENTRAL WISCONSIN

CITY           SKY/WX    TMP DP  RH WIND       PRES   REMARKS
WAUSAU         FAIR      18   4  54 W9        30.38F WCI   7
MOSINEE        NOT AVBL
MARSHFIELD     MOSUNNY   17   6  62 W6        30.39F WCI   9
STEVENS POINT  MOSUNNY   18   3  52 SW6       30.42F WCI   9
WAUPACA        MOSUNNY   26   6  42 SW6       30.44F WCI  19
WAUTOMA        NOT AVBL
WISC RAPIDS    PTSUNNY   20   4  50 SW8       30.42F WCI  10
CAMP DOUGLAS   NOT AVBL
$$

WIZ011>013-019>022-031-037>040-048>050-302100-
NORTHEAST WISCONSIN

CITY           SKY/WX    TMP DP  RH WIND       PRES   REMARKS
ANTIGO         PTSUNNY   16   5  62 SW7       30.37F WCI   6
SHAWANO        PTSUNNY   21   7  54 SW5       30.44F WCI  14
OCONTO         MOSUNNY   18   7  61 MISG      30.45F
STURGEON BAY   MOSUNNY   18   3  53 W3        30.46F
GREEN BAY      MOSUNNY   20   8  60 SW8       30.45F WCI  10
MANITOWOC      NOT AVBL
APPLETON       PTSUNNY   21   7  53 SW6       30.43F WCI  14
CLINTONVILLE   MOSUNNY   21   7  53 W5        30.44F WCI  15
OSHKOSH        MOSUNNY   22   9  57 S5        30.44F WCI  16
$$

WIZ032>034-041-042-053>061-302100-
SOUTHWEST WISCONSIN

CITY           SKY/WX    TMP DP  RH WIND       PRES   REMARKS
LA CROSSE      SUNNY     24   7  48 SE7       30.45F WCI  16
SPARTA         PTSUNNY   22   6  51 SW3       30.46F
VIROQUA        SUNNY     22   8  52 NW5       30.43F WCI  16
BOSCOBEL       SUNNY     26   8  46 SW6       30.47F WCI  19
PRAIRIE DU CHI SUNNY     25   6  43 CALM      30.48F
PLATTEVILLE    SUNNY     24  13  61 SW5       30.46F WCI  18
$$

WIZ056-057-062-063-064-067-068-302100-
SOUTH CENTRAL WISCONSIN

CITY           SKY/WX    TMP DP  RH WIND       PRES   REMARKS
REEDSBURG      MOSUNNY   22   9  57 W5        30.45F WCI  16
BARABOO/DELLS  MOSUNNY   22   9  56 S6        30.44F WCI  15
LONE ROCK      NOT AVBL
MINERAL POINT  SUNNY     27  12  54 W7        30.44F WCI  19
MADISON        MOSUNNY   24   9  52 NW7       30.45F WCI  16
MIDDLETON      MOSUNNY   27   9  46 W6        30.46F WCI  20
WATERTOWN      FAIR      24   9  54 NW5       30.46F WCI  18
MONROE         MOSUNNY   27  14  59 W8        30.45S WCI  18
JANESVILLE     MOSUNNY   27  10  50 W8        30.47F WCI  18
$$

WIZ051-052-058>065-066-070>072-302100-
SOUTHEAST WISCONSIN

CITY           SKY/WX    TMP DP  RH WIND       PRES   REMARKS
MILWAUKEE      MOSUNNY   25   9  50 E9        30.46F WCI  15
WAUKESHA       MOSUNNY   21   7  53 W7        30.45F WCI  13
MILWAUKEE/TIMM SUNNY     25   1  36 W5        30.46F WCI  19
RACINE         SUNNY     25  10  53 E3        30.47F
BURLINGTON     SUNNY     24   7  48 W3        30.46F
KENOSHA        SUNNY     26   9  48 VRB6      30.45F WCI  19
FOND DU LAC    MOSUNNY   21   7  54 SW5       30.44F WCI  15
SHEBOYGAN      MOSUNNY   23   9  55 SW6       30.44F WCI  16
WEST BEND      SUNNY     25   5  42 W6        30.44F WCI  18
JUNEAU         SUNNY     21   9  60 SW3       30.46F
$$

LSZ147-162-302100-
LAKE SUPERIOR

STATION/POSITION TIME  TEMP    WIND        PRES    WAVE
                       AIR SEA DIR/SP/G            HT/PER
                 (UTC) (F)     (DEG/KT/KT) (MB)    (FT/S)
DEVILS ISLAND    1900   15     250/  9/ 13 1031.5F
PORT WING        1940   15     220/  4/  7 1029.5F
SAXON HARBOR     1900   19     180/  2/ 13 1029.8F
$$

LMZ867-665-643>646-302100-
LAKE MICHIGAN

STATION/POSITION TIME  TEMP    WIND        PRES    WAVE
                       AIR SEA DIR/SP/G            HT/PER
                 (UTC) (F)     (DEG/KT/KT) (MB)    (FT/S)
NORTHPORT PIER   1912   15     320/  7/ 11 1031.2F
SISTER BAY       1913   29        CALM       N/A
KEWAUNEE LAKESHO 1900   19     330/  4/  9 1031.0F
SHEBOYGAN LAKESH 1900   19      60/  3/  4 1033.5F
PORT WASHINGTON  1940   23     140/  6/  9 1032.2F
MILWAUKEE LAKESH 1900   23     100/  4/  5   N/A
KENOSHA   LAKESH 1900   23      60/  5/  7 1032.2F
$$

TC  - TEMPERATURE IN CELSIUS
VSB - VISIBILITY IN STATUTE MILES
WCI - WIND CHILL INDEX
HX  - HEAT INDEX




USA.gov is the U.S. government's official web portal to all federal, state and local government web resources and services.